TEVEL2-7

Last updated on Sun Jun 21 2026 00:03:20 GMT+0000 (Coordinated Universal Time)

1 63238U 25052AE 26171.20271571 .00013367 00000+0 43885-3 0 9998 2 63238 97.3934 66.4373 0008076 122.8867 237.3153 15.31676701 70483
UTC large
Height (km)
Speed (km/s)
/
Latitude / Longitude
Inclination (degrees)
Orbital Period (minutes)
Azimuth
Elevation
Range (km)
Doppler Factor

Next 0 passes for location: London (51.5072 / 0.1276)

No passes found over London.
TEVEL2-7